User: anonymous   Login
Location: Unspecified
(0.0000°N, 0.0000°E)
Time: 09:15:55
(UTC+00:00)
Language:

Oscar 19 - Orbit

View from above orbital plane
View from above orbital plane
View from above satellite
View from above satellite

Ground track
Ground track

The orbit data is extracted from the following two-line orbital elements,

1 20442U 90005G   17268.76935767 +.00000033 +00000-0 +28335-4 0  9991
2 20442 098.5804 204.2846 0011141 206.0256 154.0369 14.32871088445961
Epoch (UTC): 25 September 2017 18:27:52
Eccentricity: 0.0011141
inclination: 98.5804°
perigee height: 774 km
apogee height: 790 km
right ascension of ascending node: 204.2846°
argument of perigee: 206.0256°
revolutions per day: 14.32871088
mean anomaly at epoch: 154.0369°
orbit number at epoch: 44596

The dashed part of the orbit path shows where the satellite is in the earth's shadow,  

DLR